Home   Weather   Kazan   Past weeks

Flag for Russia Past Weather in Kazan, Russia — Yesterday and Last 2 Weeks

39 °F

Passing clouds.

Feels Like: 37 °F
Forecast: 32 / 41 °F
Wind: 3 mph from East

Location: Kazan'

Current Time: Oct 21, 2016 at 6:00:09 PM

Latest Report: Oct 21, 2016 at 5:30 PM

Visibility: N/A

Pressure: 30.66 "Hg

Humidity: 65%

Dew Point: 28 °F

Location of KazanLocation

Past Weather in Kazan — Graph


Kazan Temperature Yesterday

Maximum temperature yesterday: 41 °F (at 1:30 PM)
Minimum temperature yesterday: 36 °F (at 6:00 AM)
Average temperature yesterday: 38 °F

High & Low Weather Summary for the Past Weeks

High50 °F (Oct 6, 4:00 PM)100% (Oct 8, 7:00 AM)30.63 "Hg (Oct 8, 7:00 AM)
Low27 °F (Oct 17, 12:00 AM)42% (Oct 16, 1:30 PM)30.09 "Hg (Oct 14, 3:30 AM)
Average38 °F83%30.32 "Hg
* Reported Oct 6 4:00 PM — Oct 21 4:30 PM, Kazan, Weather by CustomWeather, © 2016

Note: Actual official high and low records may vary slightly from our data, if they occured in-between our weather recording intervals... More about our weather records


Kazan Weather History for the Previous 24 Hours

Scroll right to see more
Time TempWeatherWind HumidityBarometerVisibility
4:30 PM
Fri, Oct 21
39 °FPassing clouds.3 mph65%30.63 "HgN/A
4:00 PM39 °FScattered clouds.3 mph70%30.63 "HgN/A
3:30 PM39 °FPassing clouds.3 mph65%30.63 "HgN/A
3:00 PM41 °FPassing clouds.3 mph61%30.63 "HgN/A
2:30 PM41 °FSunny.1 mph61%30.63 "Hg10 mi
2:00 PM41 °FScattered clouds.1 mph66%30.63 "HgN/A
1:30 PM41 °FSunny.No wind66%30.63 "Hg10 mi
1:00 PM41 °FSunny.No wind61%30.63 "Hg10 mi
12:30 PM41 °FScattered clouds.1 mph66%30.63 "HgN/A
12:00 PM41 °FScattered clouds.1 mph66%30.63 "HgN/A
11:30 AM39 °FPartly sunny.1 mph65%30.63 "HgN/A
11:00 AM39 °FSunny.1 mph75%30.63 "Hg10 mi
10:00 AM39 °FPassing clouds.3 mph81%30.63 "HgN/A
9:30 AM37 °FSunny.6 mph87%30.60 "Hg10 mi
9:00 AM37 °FSunny.6 mph93%30.60 "Hg10 mi
8:30 AM37 °FPartly sunny.3 mph93%30.60 "HgN/A
8:00 AM36 °FLow clouds.6 mph100%30.60 "HgN/A
7:30 AM36 °FLow clouds.3 mph100%30.60 "HgN/A
7:00 AM36 °FOvercast.1 mph100%30.60 "HgN/A
6:30 AM36 °FLight rain. Overcast.3 mph100%30.57 "HgN/A
6:00 AM37 °FLight rain. Low clouds.3 mph93%30.57 "HgN/A
5:30 AM37 °FLight rain. Low clouds.1 mph93%30.57 "HgN/A
5:00 AM37 °FLight rain. Low clouds.3 mph93%30.57 "HgN/A
4:30 AM37 °FLight rain. Low clouds.1 mph93%30.57 "HgN/A
4:00 AM37 °FPassing clouds.1 mph93%30.54 "HgN/A
3:30 AM36 °FPassing clouds.1 mph100%30.54 "HgN/A
3:00 AM36 °FPassing clouds.1 mph100%30.54 "HgN/A
2:30 AM37 °FPassing clouds.1 mph93%30.54 "HgN/A
2:00 AM37 °FClear.1 mph93%30.54 "Hg10 mi
1:30 AM37 °FPassing clouds.1 mph93%30.54 "HgN/A
1:00 AM37 °FPassing clouds.1 mph93%30.54 "HgN/A
12:30 AM37 °FClear.1 mph93%30.54 "Hg10 mi
12:00 AM37 °FClear.3 mph93%30.54 "Hg10 mi
11:30 PM
Thu, Oct 20
37 °FClear.3 mph93%30.51 "Hg10 mi
11:00 PM37 °FClear.3 mph93%30.51 "Hg10 mi
10:30 PM37 °FClear.3 mph93%30.51 "Hg10 mi
10:00 PM37 °FClear.3 mph93%30.51 "Hg10 mi
9:30 PM37 °FPassing clouds.3 mph93%30.51 "HgN/A
9:00 PM37 °FPassing clouds.1 mph93%30.51 "HgN/A
8:30 PM37 °FSprinkles. Passing clouds.1 mph93%30.51 "HgN/A
8:00 PM37 °FSprinkles. Passing clouds.1 mph93%30.51 "HgN/A
7:30 PM37 °FSprinkles. Passing clouds.6 mph93%30.51 "HgN/A
7:00 PM39 °FSprinkles. Passing clouds.10 mph93%30.48 "Hg4 mi
6:30 PM39 °FPassing clouds.3 mph93%30.48 "HgN/A
6:00 PM39 °FSprinkles. Passing clouds.6 mph87%30.48 "Hg6 mi
Weather by CustomWeather, © 2016

See weather overviewHow to use our weather pages